,,Stat6,,Stat2,,Stat8,,Stat9,,Stat10,,Wind1,,Wind1,
time,status,PA1M_AVG,status,PR1M_SUM,status,RH1M_AVG,status,SR1M_AVG,status,TA1M_AVG,status,W1dAve1m,status,W1sAve1m,
2005-10-07, 00:00:01,VALID,918.626,VALID,0,VALID,100,VALID,0,VALID,19.8848,VALID,110,VALID,0.732013,
2005-10-07, 00:01:01,VALID,918.615,VALID,0,VALID,100,VALID,0,VALID,19.8885,VALID,105,VALID,0.5875,
2005-10-07, 00:02:00,VALID,918.608,VALID,0,VALID,100,VALID,-0.0849042,VALID,19.8699,VALID,104,VALID,0.517578,
2005-10-07, 00:03:01,VALID,918.598,VALID,0,VALID,100,VALID,-0.0849042,VALID,19.8635,VALID,104,VALID,0.476199,
2005-10-07, 00:04:01,VALID,918.559,VALID,0,VALID,100,VALID,-0.0849042,VALID,19.8473,VALID,104,VALID,0.567882,
2005-10-07, 00:05:01,VALID,918.532,VALID,0,VALID,100,VALID,-0.0849042,VALID,19.8572,VALID,104,VALID,0.569586,
2005-10-07, 00:06:00,VALID,918.507,VALID,0,VALID,100,VALID,-0.101885,VALID,19.8575,VALID,122,VALID,0.659624,
2005-10-07, 00:07:01,VALID,918.47,VALID,0,VALID,100,VALID,-0.0679233,VALID,19.8712,VALID,124,VALID,0.691602,
2005-10-07, 00:08:01,VALID,918.447,VALID,0,VALID,100,VALID,-0.0679233,VALID,19.8376,VALID,132,VALID,0.71234,
2005-10-07, 00:09:00,VALID,918.411,VALID,0,VALID,100,VALID,-0.101885,VALID,19.8478,VALID,131,VALID,1.03106,
2005-10-07, 00:10:01,VALID,918.387,VALID,0,VALID,100,VALID,-0.0849042,VALID,19.8702,VALID,137,VALID,1.32922,
2005-10-07, 00:11:01,VALID,918.362,VALID,0,VALID,100,VALID,-0.0849042,VALID,19.8731,VALID,136,VALID,1.25343,
2005-10-07, 00:12:01,VALID,918.328,VALID,0,VALID,100,VALID,-0.101885,VALID,19.8739,VALID,144,VALID,1.11646,
2005-10-07, 00:13:01,VALID,918.315,VALID,0,VALID,100,VALID,-0.0849042,VALID,19.8476,VALID,152,VALID,0.793341,
2005-10-07, 00:14:01,VALID,918.286,VALID,0,VALID,100,VALID,-0.0339617,VALID,19.8217,VALID,153,VALID,1.03981,
2005-10-07, 00:15:01,VALID,918.27,VALID,0,VALID,100,VALID,-0.0849042,VALID,19.7606,VALID,152,VALID,1.18114,
2005-10-07, 00:16:01,VALID,918.255,VALID,0,VALID,100,VALID,-0.0679233,VALID,19.7251,VALID,153,VALID,1.09883,
2005-10-07, 00:17:01,VALID,918.244,VALID,0,VALID,100,VALID,-0.0849042,VALID,19.6992,VALID,153,VALID,1.09096,
2005-10-07, 00:18:01,VALID,918.226,VALID,0,VALID,100,VALID,-0.0679233,VALID,19.6828,VALID,144,VALID,1.09648,
2005-10-07, 00:19:01,VALID,918.207,VALID,0,VALID,100,VALID,-0.0339617,VALID,19.6734,VALID,139,VALID,0.84375,
2005-10-07, 00:20:01,VALID,918.19,VALID,0,VALID,100,VALID,-0.0849042,VALID,19.654,VALID,141,VALID,0.785342,
2005-10-07, 00:21:01,VALID,918.173,VALID,0,VALID,100,VALID,-0.0679233,VALID,19.6508,VALID,139,VALID,0.905523,
2005-10-07, 00:22:01,VALID,918.176,VALID,0,VALID,100,VALID,-0.101885,VALID,19.6413,VALID,142,VALID,0.678925,
2005-10-07, 00:23:01,VALID,918.176,VALID,0,VALID,100,VALID,-0.101885,VALID,19.6446,VALID,138,VALID,0.653587,
2005-10-07, 00:24:01,VALID,918.175,VALID,0,VALID,100,VALID,-0.0339617,VALID,19.6476,VALID,130,VALID,0.601376,
2005-10-07, 00:25:01,VALID,918.164,VALID,0,VALID,100,VALID,-0.0679233,VALID,19.657,VALID,131,VALID,0.84468,
2005-10-07, 00:26:01,VALID,918.153,VALID,0,VALID,100,VALID,-0.0509425,VALID,19.6667,VALID,138,VALID,0.646763,
2005-10-07, 00:27:01,VALID,918.135,VALID,0,VALID,100,VALID,-0.0339617,VALID,19.6861,VALID,168,VALID,0.579102,
2005-10-07, 00:28:01,VALID,918.133,VALID,0,VALID,100,VALID,-0.0679233,VALID,19.699,VALID,150,VALID,0.487424,
2005-10-07, 00:29:01,VALID,918.122,VALID,0,VALID,100,VALID,-0.0169808,VALID,19.7213,VALID,135,VALID,0.560785,
2005-10-07, 00:30:01,VALID,918.133,VALID,0,VALID,100,VALID,-0.0849042,VALID,19.7281,VALID,132,VALID,0.595703,
2005-10-07, 00:31:01,VALID,918.128,VALID,0,VALID,100,VALID,-0.0509425,VALID,19.741,VALID,132,VALID,0.583452,
2005-10-07, 00:32:01,VALID,918.138,VALID,0,VALID,100,VALID,-0.0169808,VALID,19.7576,VALID,132,VALID,0.514236,
2005-10-07, 00:33:01,VALID,918.14,VALID,0,VALID,100,VALID,-0.0509425,VALID,19.7671,VALID,131,VALID,0.240543,
2005-10-07, 00:34:01,VALID,918.119,VALID,0,VALID,100,VALID,-0.0849042,VALID,19.777,VALID,131,VALID,0.408913,
2005-10-07, 00:35:01,VALID,918.109,VALID,0,VALID,100,VALID,-0.0679233,VALID,19.7738,VALID,131,VALID,0.634673,
2005-10-07, 00:36:01,VALID,918.102,VALID,0,VALID,100,VALID,-0.0679233,VALID,19.7832,VALID,132,VALID,0.677148,
2005-10-07, 00:37:01,VALID,918.088,VALID,0,VALID,100,VALID,-0.101885,VALID,19.8028,VALID,140,VALID,0.594494,
2005-10-07, 00:38:01,VALID,918.075,VALID,0,VALID,100,VALID,-0.101885,VALID,19.809,VALID,144,VALID,0.54859,
2005-10-07, 00:39:01,VALID,918.075,VALID,0,VALID,100,VALID,-0.0849042,VALID,19.8093,VALID,145,VALID,0.670486,
2005-10-07, 00:40:01,VALID,918.072,VALID,0,VALID,100,VALID,-0.0509425,VALID,19.8093,VALID,146,VALID,0.622396,
2005-10-07, 00:41:00,VALID,918.074,VALID,0,VALID,100,VALID,-0.0849042,VALID,19.816,VALID,138,VALID,0.960938,
2005-10-07, 00:42:00,VALID,918.067,VALID,0,VALID,100,VALID,-0.0679233,VALID,19.8222,VALID,149,VALID,0.811967,
2005-10-07, 00:43:00,VALID,918.088,VALID,0,VALID,100,VALID,-0.0679233,VALID,19.851,VALID,147,VALID,0.622456,
2005-10-07, 00:44:00,VALID,918.082,VALID,0,VALID,100,VALID,-0.0339617,VALID,19.8381,VALID,140,VALID,0.539244,
2005-10-07, 00:45:00,VALID,918.101,VALID,0,VALID,100,VALID,-0.0509425,VALID,19.8314,VALID,138,VALID,0.604802,
2005-10-07, 00:46:00,VALID,918.108,VALID,0,VALID,100,VALID,-0.0679233,VALID,19.822,VALID,134,VALID,0.618521,
2005-10-07, 00:47:00,VALID,918.102,VALID,0,VALID,100,VALID,-0.0679233,VALID,19.8319,VALID,134,VALID,0.542111,
2005-10-07, 00:48:00,VALID,918.092,VALID,0,VALID,100,VALID,-0.0509425,VALID,19.8155,VALID,118,VALID,0.401228,
2005-10-07, 00:49:00,VALID,918.087,VALID,0,VALID,100,VALID,-0.0849042,VALID,19.7929,VALID,104,VALID,0.651972,
2005-10-07, 00:50:00,VALID,918.1,VALID,0,VALID,100,VALID,-0.0679233,VALID,19.7835,VALID,106,VALID,0.695131,
2005-10-07, 00:51:00,VALID,918.094,VALID,0,VALID,100,VALID,-0.101885,VALID,19.7579,VALID,114,VALID,0.34282,
2005-10-07, 00:52:00,VALID,918.094,VALID,0,VALID,100,VALID,-0.0679233,VALID,19.7281,VALID,122,VALID,0.308408,
2005-10-07, 00:53:00,VALID,918.07,VALID,0,VALID,100,VALID,-0.101885,VALID,19.7218,VALID,123,VALID,0.433689,
2005-10-07, 00:54:00,VALID,918.06,VALID,0,VALID,100,VALID,-0.0339617,VALID,19.7186,VALID,111,VALID,0.806463,
2005-10-07, 00:55:00,VALID,918.033,VALID,0,VALID,100,VALID,-0.0509425,VALID,19.6992,VALID,91,VALID,0.418241,
2005-10-07, 00:56:00,VALID,918.022,VALID,0,VALID,100,VALID,-0.0849042,VALID,19.6928,VALID,105,VALID,0.50279,
2005-10-07, 00:57:00,VALID,918.007,VALID,0,VALID,100,VALID,-0.0849042,VALID,19.6801,VALID,110,VALID,0.569767,
2005-10-07, 00:58:00,VALID,918.004,VALID,0,VALID,100,VALID,-0.0679233,VALID,19.6965,VALID,141,VALID,0.686967,
2005-10-07, 00:59:00,VALID,918.006,VALID,0,VALID,100,VALID,-0.0509425,VALID,19.735,VALID,117,VALID,0.389672,
2005-10-07, 01:00:00,VALID,918.01,VALID,0,VALID,100,VALID,-0.0679233,VALID,19.7544,VALID,126,VALID,0.570694,
2005-10-07, 01:01:00,VALID,917.994,VALID,0,VALID,100,VALID,-0.0849042,VALID,19.7569,VALID,160,VALID,0.401042,
2005-10-07, 01:02:00,VALID,917.996,VALID,0,VALID,100,VALID,-0.0509425,VALID,19.7705,VALID,162,VALID,0.283913,
2005-10-07, 01:03:00,VALID,917.971,VALID,0,VALID,100,VALID,-0.0849042,VALID,19.7606,VALID,162,VALID,0.128811,
2005-10-07, 01:04:00,VALID,917.95,VALID,0,VALID,100,VALID,-0.101885,VALID,19.7512,VALID,162,VALID,0.149554,
2005-10-07, 01:05:00,VALID,917.946,VALID,0,VALID,100,VALID,-0.0679233,VALID,19.7479,VALID,162,VALID,0.196766,
2005-10-07, 01:06:00,VALID,917.93,VALID,0,VALID,100,VALID,-0.0509425,VALID,19.7648,VALID,162,VALID,0.142188,
2005-10-07, 01:07:00,VALID,917.903,VALID,0,VALID,100,VALID,-0.0849042,VALID,19.7613,VALID,162,VALID,0.0745046,
2005-10-07, 01:08:00,VALID,917.889,VALID,0,VALID,100,VALID,-0.101885,VALID,19.7606,VALID,165,VALID,0.517113,
2005-10-07, 01:09:00,VALID,917.892,VALID,0,VALID,100,VALID,-0.0849042,VALID,19.7705,VALID,166,VALID,0.22424,
2005-10-07, 01:10:00,VALID,917.875,VALID,0,VALID,100,VALID,-0.101885,VALID,19.7705,VALID,166,VALID,0.0813954,
2005-10-07, 01:11:00,VALID,917.868,VALID,0,VALID,100,VALID,-0.0509425,VALID,19.7611,VALID,166,VALID,0.229911,
2005-10-07, 01:12:00,VALID,917.875,VALID,0,VALID,100,VALID,-0.0849042,VALID,19.7576,VALID,166,VALID,0.287609,
2005-10-07, 01:13:00,VALID,917.861,VALID,0,VALID,100,VALID,-0.101885,VALID,19.7442,VALID,153,VALID,0.444568,
2005-10-07, 01:14:00,VALID,917.848,VALID,0,VALID,100,VALID,-0.0849042,VALID,19.7447,VALID,149,VALID,0.378906,
2005-10-07, 01:15:00,VALID,917.832,VALID,0,VALID,100,VALID,-0.0679233,VALID,19.7472,VALID,149,VALID,0.3837,
2005-10-07, 01:16:00,VALID,917.83,VALID,0,VALID,100,VALID,-0.0679233,VALID,19.7708,VALID,149,VALID,0.383539,
2005-10-07, 01:17:00,VALID,917.823,VALID,0,VALID,100,VALID,0,VALID,19.7693,VALID,149,VALID,0.565104,
2005-10-07, 01:18:00,VALID,917.808,VALID,0,VALID,100,VALID,0.0509425,VALID,19.7785,VALID,145,VALID,0.676962,
2005-10-07, 01:19:00,VALID,917.809,VALID,0,VALID,100,VALID,0.0339617,VALID,19.8048,VALID,144,VALID,0.605841,
2005-10-07, 01:20:00,VALID,917.811,VALID,0,VALID,100,VALID,0.0679233,VALID,19.8108,VALID,144,VALID,0.795541,
2005-10-07, 01:21:00,VALID,917.812,VALID,0,VALID,100,VALID,0.0509425,VALID,19.8341,VALID,163,VALID,1.17769,
2005-10-07, 01:22:00,VALID,917.817,VALID,0,VALID,100,VALID,0.0339617,VALID,19.8565,VALID,159,VALID,0.995486,
2005-10-07, 01:23:00,VALID,917.785,VALID,0,VALID,100,VALID,0.101885,VALID,19.8592,VALID,137,VALID,1.41988,
2005-10-07, 01:24:00,VALID,917.76,VALID,0,VALID,100,VALID,0.0679233,VALID,19.8821,VALID,133,VALID,1.5668,
2005-10-07, 01:25:00,VALID,917.746,VALID,0,VALID,100,VALID,0,VALID,19.8885,VALID,148,VALID,1.30526,
2005-10-07, 01:26:00,VALID,917.736,VALID,0,VALID,100,VALID,0.0679233,VALID,19.9077,VALID,123,VALID,1.3774,
2005-10-07, 01:27:00,VALID,917.708,VALID,0,VALID,100,VALID,0.0169808,VALID,19.9077,VALID,139,VALID,1.07104,
2005-10-07, 01:28:00,VALID,917.681,VALID,0,VALID,100,VALID,0.0509425,VALID,19.9176,VALID,141,VALID,1.14489,
2005-10-07, 01:29:00,VALID,917.662,VALID,0,VALID,100,VALID,0.0509425,VALID,19.9144,VALID,113,VALID,0.929869,
2005-10-07, 01:30:00,VALID,917.655,VALID,0,VALID,100,VALID,0.0849042,VALID,19.9114,VALID,111,VALID,0.977385,
2005-10-07, 01:31:00,VALID,917.611,VALID,0,VALID,100,VALID,0.0509425,VALID,19.8982,VALID,108,VALID,0.688408,
2005-10-07, 01:32:00,VALID,917.583,VALID,0,VALID,100,VALID,-0.0339617,VALID,19.8833,VALID,115,VALID,0.909299,
2005-10-07, 01:33:00,VALID,917.579,VALID,0,VALID,100,VALID,-0.0339617,VALID,19.8709,VALID,97,VALID,0.726963,
2005-10-07, 01:34:00,VALID,917.545,VALID,0,VALID,100,VALID,0,VALID,19.8677,VALID,79,VALID,0.527058,
2005-10-07, 01:35:00,VALID,917.517,VALID,0,VALID,100,VALID,-0.0849042,VALID,19.8386,VALID,141,VALID,0.719295,
2005-10-07, 01:36:00,VALID,917.485,VALID,0,VALID,100,VALID,-0.0679233,VALID,19.8222,VALID,123,VALID,0.640447,
2005-10-07, 01:37:00,VALID,917.472,VALID,0,VALID,100,VALID,-0.0679233,VALID,19.8026,VALID,139,VALID,0.999428,
2005-10-07, 01:38:00,VALID,917.459,VALID,0,VALID,100,VALID,-0.0509425,VALID,19.7966,VALID,137,VALID,1.31612,
2005-10-07, 01:39:00,VALID,917.444,VALID,0,VALID,100,VALID,-0.0339617,VALID,19.7671,VALID,136,VALID,1.44885,
2005-10-07, 01:40:00,VALID,917.426,VALID,0,VALID,100,VALID,-0.0169808,VALID,19.7638,VALID,140,VALID,1.08121,
2005-10-07, 01:41:00,VALID,917.414,VALID,0,VALID,100,VALID,0,VALID,19.7474,VALID,137,VALID,1.32322,
2005-10-07, 01:42:00,VALID,917.428,VALID,0,VALID,100,VALID,-0.0169808,VALID,19.744,VALID,144,VALID,1.27801,
2005-10-07, 01:43:00,VALID,917.406,VALID,0,VALID,100,VALID,-0.0339617,VALID,19.7248,VALID,134,VALID,1.03385,
2005-10-07, 01:44:00,VALID,917.398,VALID,0,VALID,100,VALID,-0.0509425,VALID,19.7221,VALID,140,VALID,1.08984,
2005-10-07, 01:45:00,VALID,917.385,VALID,0,VALID,100,VALID,-0.0509425,VALID,19.6895,VALID,134,VALID,1.12984,
2005-10-07, 01:46:00,VALID,917.389,VALID,0,VALID,100,VALID,-0.0509425,VALID,19.6476,VALID,150,VALID,1.22923,
2005-10-07, 01:47:00,VALID,917.365,VALID,0,VALID,100,VALID,-0.0679233,VALID,19.6279,VALID,146,VALID,1.33807,
2005-10-07, 01:48:00,VALID,917.347,VALID,0,VALID,100,VALID,-0.0169808,VALID,19.5991,VALID,150,VALID,0.948219,
2005-10-07, 01:49:00,VALID,917.327,VALID,0,VALID,100,VALID,-0.0339617,VALID,19.5825,VALID,143,VALID,0.691406,
2005-10-07, 01:50:00,VALID,917.313,VALID,0,VALID,100,VALID,-0.0679233,VALID,19.5703,VALID,143,VALID,1.07829,
2005-10-07, 01:51:00,VALID,917.298,VALID,0,VALID,100,VALID,-0.0509425,VALID,19.5512,VALID,146,VALID,0.955915,
2005-10-07, 01:52:00,VALID,917.271,VALID,0,VALID,100,VALID,-0.0339617,VALID,19.5251,VALID,140,VALID,1.19588,
2005-10-07, 01:53:00,VALID,917.241,VALID,0,VALID,100,VALID,-0.0509425,VALID,19.496,VALID,136,VALID,1.02271,
2005-10-07, 01:54:00,VALID,917.225,VALID,0,VALID,100,VALID,-0.0679233,VALID,19.4665,VALID,135,VALID,1.26116,
2005-10-07, 01:55:00,VALID,917.211,VALID,0,VALID,100,VALID,-0.0849042,VALID,19.4374,VALID,135,VALID,1.38205,
2005-10-07, 01:56:00,VALID,917.174,VALID,0,VALID,100,VALID,-0.0679233,VALID,19.415,VALID,137,VALID,1.25482,
2005-10-07, 01:57:00,VALID,917.175,VALID,0,VALID,100,VALID,-0.0339617,VALID,19.4188,VALID,136,VALID,1.59188,
2005-10-07, 01:58:00,VALID,917.17,VALID,0,VALID,100,VALID,-0.0509425,VALID,19.3994,VALID,132,VALID,1.41559,
2005-10-07, 01:59:00,VALID,917.146,VALID,0,VALID,100,VALID,-0.0339617,VALID,19.373,VALID,135,VALID,1.51228,
2005-10-07, 02:00:00,VALID,917.149,VALID,0,VALID,100,VALID,-0.0679233,VALID,19.3569,VALID,124,VALID,1.03258,
2005-10-07, 02:01:00,VALID,917.15,VALID,0,VALID,100,VALID,-0.0339617,VALID,19.338,VALID,120,VALID,1.25,
2005-10-07, 02:02:00,VALID,917.151,VALID,0,VALID,100,VALID,0.0339617,VALID,19.3177,VALID,124,VALID,0.678544,
2005-10-07, 02:03:00,VALID,917.144,VALID,0,VALID,100,VALID,0.0509425,VALID,19.2879,VALID,121,VALID,1.20469,
2005-10-07, 02:04:00,VALID,917.134,VALID,0,VALID,100,VALID,0.0169808,VALID,19.298,VALID,115,VALID,0.921875,
2005-10-07, 02:05:00,VALID,917.127,VALID,0,VALID,100,VALID,0.0509425,VALID,19.2812,VALID,121,VALID,0.978561,
2005-10-07, 02:06:00,VALID,917.111,VALID,0,VALID,100,VALID,0.0339617,VALID,19.2787,VALID,112,VALID,1.08785,
2005-10-07, 02:07:00,VALID,917.101,VALID,0,VALID,100,VALID,0.0169808,VALID,19.269,VALID,114,VALID,0.772727,
2005-10-07, 02:08:00,VALID,917.09,VALID,0,VALID,100,VALID,0.0339617,VALID,19.2725,VALID,124,VALID,0.751065,
2005-10-07, 02:09:00,VALID,917.089,VALID,0,VALID,100,VALID,0.0679233,VALID,19.2658,VALID,121,VALID,0.699405,
2005-10-07, 02:10:00,VALID,917.095,VALID,0,VALID,100,VALID,0.0679233,VALID,19.2528,VALID,114,VALID,0.879687,
2005-10-07, 02:11:00,VALID,917.096,VALID,0,VALID,100,VALID,0.0849042,VALID,19.2494,VALID,109,VALID,0.909801,
2005-10-07, 02:12:00,VALID,917.108,VALID,0,VALID,100,VALID,0.0849042,VALID,19.2461,VALID,119,VALID,0.647321,
2005-10-07, 02:13:00,VALID,917.119,VALID,0,VALID,100,VALID,0.0679233,VALID,19.2332,VALID,110,VALID,0.766426,
2005-10-07, 02:14:00,VALID,917.126,VALID,0,VALID,100,VALID,0.0169808,VALID,19.2335,VALID,85,VALID,0.154345,
2005-10-07, 02:15:00,VALID,917.124,VALID,0,VALID,100,VALID,0.0509425,VALID,19.2275,VALID,106,VALID,0.41369,
2005-10-07, 02:16:00,VALID,917.144,VALID,0,VALID,100,VALID,0.101885,VALID,19.2106,VALID,118,VALID,0.438616,
2005-10-07, 02:17:00,VALID,917.154,VALID,0,VALID,100,VALID,-0.0849042,VALID,19.2021,VALID,110,VALID,0.268973,
2005-10-07, 02:18:00,VALID,917.157,VALID,0,VALID,100,VALID,-0.101885,VALID,19.1999,VALID,110,VALID,0.0619549,
2005-10-07, 02:19:00,VALID,917.154,VALID,0,VALID,100,VALID,-0.101885,VALID,19.1701,VALID,110,VALID,0.185937,
2005-10-07, 02:20:00,VALID,917.149,VALID,0,VALID,100,VALID,-0.101885,VALID,19.1512,VALID,110,VALID,0.0117188,
2005-10-07, 02:21:00,VALID,917.134,VALID,0,VALID,100,VALID,-0.0679233,VALID,19.1318,VALID,110,VALID,0.361919,
2005-10-07, 02:22:00,VALID,917.114,VALID,0,VALID,100,VALID,-0.0849042,VALID,19.0993,VALID,66,VALID,0.348514,
2005-10-07, 02:23:00,VALID,917.086,VALID,0,VALID,100,VALID,-0.101885,VALID,19.0772,VALID,56,VALID,0.265439,
2005-10-07, 02:24:00,VALID,917.071,VALID,0,VALID,100,VALID,-0.0509425,VALID,19.0707,VALID,56,VALID,0.125997,
2005-10-07, 02:25:00,VALID,917.052,VALID,0,VALID,100,VALID,-0.0509425,VALID,19.0608,VALID,56,VALID,0.264717,
2005-10-07, 02:26:00,VALID,917.044,VALID,0,VALID,100,VALID,-0.0849042,VALID,19.0543,VALID,56,VALID,0.40997,
2005-10-07, 02:27:00,VALID,917.03,VALID,0,VALID,100,VALID,-0.0169808,VALID,19.0642,VALID,56,VALID,0.26391,
2005-10-07, 02:28:00,VALID,917.024,VALID,0,VALID,100,VALID,-0.0849042,VALID,19.0642,VALID,56,VALID,0.285342,
2005-10-07, 02:29:00,VALID,917.01,VALID,0,VALID,100,VALID,-0.0509425,VALID,19.064,VALID,56,VALID,0.322493,
2005-10-07, 02:30:00,VALID,917.005,VALID,0,VALID,100,VALID,-0.0509425,VALID,19.0148,VALID,54,VALID,0.422585,
2005-10-07, 02:31:00,VALID,917.001,VALID,0,VALID,100,VALID,-0.0679233,VALID,18.9736,VALID,54,VALID,0.13529,
2005-10-07, 02:32:00,VALID,917,VALID,0,VALID,100,VALID,-0.0339617,VALID,18.9674,VALID,54,VALID,0.0575945,
2005-10-07, 02:33:00,VALID,916.989,VALID,0,VALID,100,VALID,-0.0679233,VALID,18.9408,VALID,54,VALID,0.102604,
2005-10-07, 02:34:00,VALID,916.983,VALID,0,VALID,100,VALID,-0.0849042,VALID,18.9286,VALID,54,VALID,0.211868,
2005-10-07, 02:35:00,VALID,916.971,VALID,0,VALID,100,VALID,-0.0679233,VALID,18.9256,VALID,54,VALID,0.180246,
2005-10-07, 02:36:00,VALID,916.977,VALID,0,VALID,100,VALID,-0.0679233,VALID,18.8963,VALID,54,VALID,0.00381098,
2005-10-07, 02:37:00,VALID,916.98,VALID,0,VALID,100,VALID,-0.0679233,VALID,18.8608,VALID,54,VALID,0,
2005-10-07, 02:38:00,VALID,916.966,VALID,0,VALID,100,VALID,-0.101885,VALID,18.8608,VALID,54,VALID,0,
2005-10-07, 02:39:00,VALID,916.969,VALID,0,VALID,100,VALID,-0.0849042,VALID,18.8414,VALID,54,VALID,0,
2005-10-07, 02:40:00,VALID,916.967,VALID,0,VALID,100,VALID,-0.101885,VALID,18.8223,VALID,54,VALID,0,
2005-10-07, 02:41:00,VALID,916.965,VALID,0,VALID,100,VALID,-0.0849042,VALID,18.8059,VALID,54,VALID,0.0258681,
2005-10-07, 02:42:00,VALID,916.973,VALID,0,VALID,100,VALID,-0.101885,VALID,18.7835,VALID,59,VALID,0.314098,
2005-10-07, 02:43:00,VALID,916.96,VALID,0,VALID,100,VALID,-0.0849042,VALID,18.7316,VALID,76,VALID,0.486793,
2005-10-07, 02:44:00,VALID,916.979,VALID,0,VALID,100,VALID,-0.0849042,VALID,18.7187,VALID,103,VALID,0.51399,
2005-10-07, 02:45:00,VALID,916.972,VALID,0,VALID,100,VALID,-0.101885,VALID,18.739,VALID,103,VALID,0.438743,
2005-10-07, 02:46:00,VALID,916.975,VALID,0,VALID,100,VALID,-0.101885,VALID,18.7351,VALID,116,VALID,0.531064,
2005-10-07, 02:47:00,VALID,916.97,VALID,0,VALID,100,VALID,-0.101885,VALID,18.7416,VALID,132,VALID,0.582667,
2005-10-07, 02:48:00,VALID,916.968,VALID,0,VALID,100,VALID,-0.101885,VALID,18.7706,VALID,132,VALID,0.68968,
2005-10-07, 02:49:00,VALID,916.952,VALID,0,VALID,100,VALID,-0.101885,VALID,18.8066,VALID,133,VALID,0.68192,
2005-10-07, 02:50:00,VALID,916.935,VALID,0,VALID,100,VALID,-0.101885,VALID,18.8161,VALID,133,VALID,0.733613,
2005-10-07, 02:51:00,VALID,916.945,VALID,0,VALID,100,VALID,-0.101885,VALID,18.8484,VALID,133,VALID,0.595703,
2005-10-07, 02:52:00,VALID,916.962,VALID,0,VALID,100,VALID,-0.101885,VALID,18.8844,VALID,133,VALID,0.439878,
2005-10-07, 02:53:00,VALID,916.984,VALID,0,VALID,100,VALID,-0.0849042,VALID,18.9067,VALID,132,VALID,0.15952,
2005-10-07, 02:54:00,VALID,916.988,VALID,0,VALID,100,VALID,-0.101885,VALID,18.9393,VALID,132,VALID,0.214026,
2005-10-07, 02:55:00,VALID,917.011,VALID,0,VALID,100,VALID,-0.101885,VALID,18.9515,VALID,132,VALID,0.180618,
2005-10-07, 02:56:00,VALID,917.024,VALID,0,VALID,100,VALID,-0.101885,VALID,18.939,VALID,124,VALID,0.301054,
2005-10-07, 02:57:00,VALID,917.03,VALID,0,VALID,100,VALID,-0.101885,VALID,18.9259,VALID,95,VALID,0.587843,
2005-10-07, 02:58:00,VALID,917.023,VALID,0,VALID,100,VALID,-0.101885,VALID,18.9395,VALID,97,VALID,0.603516,
2005-10-07, 02:59:00,VALID,916.998,VALID,0,VALID,100,VALID,-0.101885,VALID,18.942,VALID,107,VALID,0.502477,
2005-10-07, 03:00:00,VALID,916.979,VALID,0,VALID,100,VALID,-0.0849042,VALID,18.9418,VALID,107,VALID,0.410247,
2005-10-07, 03:01:00,VALID,916.955,VALID,0,VALID,100,VALID,-0.0849042,VALID,18.9455,VALID,107,VALID,0.300037,
2005-10-07, 03:02:00,VALID,916.936,VALID,0,VALID,100,VALID,0.0339617,VALID,18.9445,VALID,108,VALID,0.493459,
2005-10-07, 03:03:00,VALID,916.947,VALID,0,VALID,100,VALID,0.0169808,VALID,18.9473,VALID,124,VALID,0.539063,
2005-10-07, 03:04:00,VALID,916.936,VALID,0,VALID,100,VALID,0.0339617,VALID,18.9403,VALID,124,VALID,0.627404,
2005-10-07, 03:05:00,VALID,916.949,VALID,0,VALID,100,VALID,0.0339617,VALID,18.9498,VALID,113,VALID,0.799762,
2005-10-07, 03:06:00,VALID,916.955,VALID,0,VALID,100,VALID,0.0169808,VALID,18.9632,VALID,106,VALID,0.715588,
2005-10-07, 03:07:00,VALID,916.977,VALID,0,VALID,100,VALID,0.0169808,VALID,18.9567,VALID,119,VALID,0.539679,
2005-10-07, 03:08:00,VALID,916.991,VALID,0,VALID,100,VALID,0.0339617,VALID,18.9731,VALID,128,VALID,0.627056,
2005-10-07, 03:09:00,VALID,916.993,VALID,0,VALID,100,VALID,0,VALID,18.9893,VALID,149,VALID,0.652902,
2005-10-07, 03:10:00,VALID,916.999,VALID,0,VALID,100,VALID,0,VALID,19.0119,VALID,142,VALID,0.677269,
2005-10-07, 03:11:00,VALID,916.984,VALID,0,VALID,100,VALID,0,VALID,19.0148,VALID,132,VALID,0.513338,
2005-10-07, 03:12:00,VALID,916.986,VALID,0,VALID,100,VALID,0.0339617,VALID,19.0148,VALID,153,VALID,0.547222,
2005-10-07, 03:13:00,VALID,916.988,VALID,0,VALID,100,VALID,0,VALID,19.025,VALID,154,VALID,0.588415,
2005-10-07, 03:14:00,VALID,916.98,VALID,0,VALID,100,VALID,0.0169808,VALID,19.0148,VALID,154,VALID,0.611923,
2005-10-07, 03:15:00,VALID,916.973,VALID,0,VALID,100,VALID,0,VALID,19.0114,VALID,154,VALID,0.615513,
2005-10-07, 03:16:00,VALID,916.98,VALID,0,VALID,100,VALID,0,VALID,19.0248,VALID,157,VALID,0.723011,
2005-10-07, 03:17:00,VALID,916.983,VALID,0,VALID,100,VALID,0,VALID,19.0248,VALID,167,VALID,0.711825,
2005-10-07, 03:18:00,VALID,917.005,VALID,0,VALID,100,VALID,0,VALID,19.0308,VALID,157,VALID,0.717478,
2005-10-07, 03:19:00,VALID,917.009,VALID,0,VALID,100,VALID,0.0169808,VALID,19.0372,VALID,152,VALID,0.768483,
2005-10-07, 03:20:00,VALID,917.037,VALID,0,VALID,100,VALID,0.0339617,VALID,19.0402,VALID,151,VALID,0.848323,
2005-10-07, 03:21:00,VALID,917.04,VALID,0,VALID,100,VALID,0.0169808,VALID,19.037,VALID,140,VALID,0.821875,
2005-10-07, 03:22:00,VALID,917.055,VALID,0,VALID,100,VALID,0,VALID,19.0273,VALID,142,VALID,0.729911,
2005-10-07, 03:23:00,VALID,917.064,VALID,0,VALID,100,VALID,0.0169808,VALID,19.0377,VALID,125,VALID,1.02453,
2005-10-07, 03:24:00,VALID,917.063,VALID,0,VALID,100,VALID,0,VALID,19.0471,VALID,136,VALID,1.06335,
2005-10-07, 03:25:00,VALID,917.074,VALID,0,VALID,100,VALID,0,VALID,19.0506,VALID,122,VALID,1.02734,
2005-10-07, 03:26:00,VALID,917.063,VALID,0,VALID,100,VALID,-0.0169808,VALID,19.0506,VALID,109,VALID,0.906977,
2005-10-07, 03:27:00,VALID,917.049,VALID,0,VALID,100,VALID,0.0169808,VALID,19.034,VALID,107,VALID,1.19039,
2005-10-07, 03:28:00,VALID,917.049,VALID,0,VALID,100,VALID,0,VALID,19.0534,VALID,116,VALID,1.04942,
2005-10-07, 03:29:00,VALID,917.042,VALID,0,VALID,100,VALID,0,VALID,19.07,VALID,136,VALID,0.807478,
2005-10-07, 03:30:00,VALID,917.039,VALID,0,VALID,100,VALID,0.0339617,VALID,19.076,VALID,126,VALID,0.883929,
2005-10-07, 03:31:00,VALID,917.034,VALID,0,VALID,100,VALID,0.0169808,VALID,19.0891,VALID,111,VALID,0.500195,
2005-10-07, 03:32:00,VALID,917.049,VALID,0,VALID,100,VALID,-0.0679233,VALID,19.0871,VALID,115,VALID,0.513579,
2005-10-07, 03:33:00,VALID,917.04,VALID,0,VALID,100,VALID,-0.101885,VALID,19.0769,VALID,111,VALID,0.803977,
2005-10-07, 03:34:00,VALID,917.055,VALID,0,VALID,100,VALID,-0.0849042,VALID,19.0873,VALID,105,VALID,0.763317,
2005-10-07, 03:35:00,VALID,917.062,VALID,0,VALID,100,VALID,-0.0849042,VALID,19.0772,VALID,103,VALID,0.607292,
2005-10-07, 03:36:00,VALID,917.064,VALID,0,VALID,100,VALID,-0.0509425,VALID,19.0839,VALID,102,VALID,0.744731,
2005-10-07, 03:37:00,VALID,917.081,VALID,0,VALID,100,VALID,-0.0679233,VALID,19.0806,VALID,101,VALID,0.81907,
2005-10-07, 03:38:00,VALID,917.083,VALID,0,VALID,100,VALID,-0.0849042,VALID,19.0841,VALID,102,VALID,0.912574,
2005-10-07, 03:39:00,VALID,917.077,VALID,0,VALID,100,VALID,-0.0849042,VALID,19.0779,VALID,102,VALID,0.641927,